This is the latest recevied weather packets stored in our database for station/object KG7BDA. If no packets are shown the sender has not sent any weather packets the latest 10 day(s).
| Time | Temp. | Humidity | Pressure | Rain* | Wind** | Luminosity | Snow |
|---|---|---|---|---|---|---|---|
| 1778106443 | 22.22° C | 31% | 1018 hPa | 0 mm | - | - | - |
| 1778106127 | 22.22° C | 31% | 1018 hPa | 0 mm | - | - | - |
| 1778106083 | 22.22° C | 31% | 1018 hPa | 0 mm | - | - | - |
| 1778105723 | 22.22° C | 32% | 1018.2 hPa | 0 mm | - | - | - |
| 1778105363 | 22.22° C | 30% | 1018.3 hPa | 0 mm | - | - | - |
| 1778105003 | 22.22° C | 32% | 1018.4 hPa | 0 mm | - | - | - |
| 1778104644 | 22.22° C | 30% | 1018.5 hPa | 0 mm | - | - | - |
| 1778104315 | 22.22° C | 33% | 1018.4 hPa | 0 mm | - | - | - |
| 1778104283 | 22.22° C | 33% | 1018.4 hPa | 0 mm | - | - | - |
| 1778103923 | 21.67° C | 31% | 1018.5 hPa | 0 mm | - | - | - |
| 1778103563 | 21.67° C | 32% | 1018.7 hPa | 0 mm | - | - | - |
| 1778103203 | 21.67° C | 29% | 1018.8 hPa | 0 mm | - | - | - |
| 1778102843 | 21.67° C | 31% | 1019 hPa | 0 mm | - | - | - |
| 1778102483 | 21.11° C | 30% | 1019.1 hPa | 0 mm | - | - | - |
| 1778102123 | 21.11° C | 29% | 1019.2 hPa | 0 mm | - | - | - |
| 1778101764 | 21.11° C | 29% | 1019.1 hPa | 0 mm | - | - | - |
| 1778101403 | 21.67° C | 29% | 1019.1 hPa | 0 mm | - | - | - |
| 1778101043 | 21.11° C | 28% | 1019.1 hPa | 0 mm | - | - | - |
| 1778100323 | 21.11° C | 30% | 1019.1 hPa | 0 mm | - | - | - |
| 1778099963 | 21.11° C | 28% | 1019.2 hPa | 0 mm | - | - | - |
| 1778099603 | 21.11° C | 27% | 1019.3 hPa | 0 mm | - | - | - |
| 1778099244 | 21.11° C | 28% | 1019.2 hPa | 0 mm | - | - | - |
| 1778098883 | 21.11° C | 27% | 1019.3 hPa | 0 mm | - | - | - |
| 1778098523 | 20.56° C | 28% | 1019.3 hPa | 0 mm | - | - | - |
| 1778098163 | 20° C | 27% | 1019.4 hPa | 0 mm | - | - | - |
* Rain latest hour (hover to see other rain measurements)
** Current wind speed in m/s (hover to see current wind gust speed)